World > North America > United States > Missouri > Spickard

Spickard, MO Hourly Weather Conditions

Feedback E-mail the Weather

Quick WX

Spickard, MO Weather Maps

°F °C°F °C
Spickard Weather Map
UTC Time: 2/5/2023, 16:41
Your Time:

Spickard, MO Regional Weather

Expires:202302051700;;846307
ASUS43 KEAX 051615
RWREAX

WEATHER ROUNDUP FOR EASTERN KANSAS AND NORTHWEST MISSOURI
NATIONAL WEATHER SERVICE KANSAS CITY/PLEASANT HILL MO
1000 AM CST SUN FEB 05 2023


MOZ001>008-011>017-020>025-030>033-038>040-044>046-053-054-051700-
...NORTHERN AND CENTRAL MISSOURI...
  
CITY           SKY/WX    TMP DP  RH WIND       PRES   REMARKS
ST. JOSEPH     SUNNY     38  30  73 S3        30.10R                  
MOSBY          SUNNY     41  30  65 CALM      30.11R                  
HARRISONVILLE  SUNNY     43  32  65 W5        30.15S                  
WHITEMAN AFB   SUNNY     42  29  60 SW7       30.10R                  
CLINTON        SUNNY     41  30  65 SW6       30.14R                  
SEDALIA        SUNNY     42  31  64 SW9       30.12R                  
MARSHALL       SUNNY     41  32  70 SW6       30.11R                  
CHILLICOTHE      N/A     43  31  62 VRB3      30.07S                  
MOBERLY        SUNNY     41  28  60 W12       30.06R WCI  34          
KIRKSVILLE     SUNNY     44  29  55 W7        30.04R                  

$$


SKY/WX - Weather  TMP - Temperature  DP - Dew Point  RH - Humidity
WIND - Wind Direction/Speed PRES - Barometric Pressure VSB - Visibility
WCI - Wind Chill Index E13G22 Wind - East Wind 13 mph/Gusts of 22 mph

Trending Headlines

Trending Entertainment Headlines

Spickard Radar Loop

Use the map search tool if you want to place a location marker on the radar map...

Spickard Quick Facts

National Two Day Weather Forecast


E-mail the Spickard Weather Forecast

Voice your opinion or tell us about page issues...